Date String (YYYY-MM-DD hh:mm:ss) UTC,Instrument flags,Ambient pressure (hPa),Sample flow (lpm),Bypass flow (lpm),Sample temperature (°C),Ambient temperature (°C),ASC tube jacket temperature (°C),LED temperature (°C),Box temperature (°C),Sample RH (%),Span deviation,Mass concentration (μg/m³),Mass concentration (μg/m³),Mass concentration (μg/m³)
DateTimeUTC,F1_M11,P_M11,Q1_M11,Q2_M11,T1_M11,T2_M11,T3_M11,T4_M11,T5_M11,U1_M11,ZSPAN_M11,X0_M11,X2_M11,X1_M11
2023-02-28 22:00:00,,0811.8,5.02,0.00,21.8,20.1,00.0,30.6,23.5,09.3,0000.0,0000.95,0000.48,0000.23
2023-02-28 22:01:00,,0811.9,5.00,0.00,21.8,20.2,00.0,30.6,23.5,09.4,0000.0,0001.05,0000.51,0000.24
2023-02-28 22:02:00,,0811.9,5.00,0.00,21.8,20.2,00.0,30.6,23.5,09.3,0000.0,0001.09,0000.53,0000.24
2023-02-28 22:03:00,,0811.9,4.99,0.00,21.8,20.2,00.0,30.6,23.4,09.2,0000.0,0001.14,0000.53,0000.24
2023-02-28 22:04:00,,0811.8,5.00,0.00,21.7,20.1,00.0,30.6,23.4,09.2,0000.0,0001.13,0000.51,0000.25
2023-02-28 22:05:00,,0811.9,4.99,0.00,21.7,20.2,00.0,30.6,23.4,09.3,0000.0,0001.10,0000.51,0000.25
2023-02-28 22:06:00,,0812.1,5.03,0.00,21.8,21.0,00.0,30.5,23.7,09.2,0000.0,0001.05,0000.49,0000.25
2023-02-28 22:07:00,,0812.0,4.99,0.00,21.9,22.3,00.0,30.6,24.0,08.9,0000.0,0001.05,0000.48,0000.25
2023-02-28 22:08:00,,0812.0,5.00,0.00,22.1,23.0,00.0,30.6,24.2,08.8,0000.0,0001.05,0000.47,0000.24
2023-02-28 22:09:00,,0812.2,5.00,0.00,22.1,22.4,00.0,30.7,24.1,08.9,0000.0,0001.06,0000.48,0000.24
2023-02-28 22:10:00,,0812.1,5.01,0.00,22.1,21.9,00.0,30.7,23.9,08.9,0000.0,0001.01,0000.47,0000.24
2023-02-28 22:11:00,,0812.1,4.99,0.00,22.1,21.5,00.0,30.7,23.8,08.8,0000.0,0001.01,0000.47,0000.24
2023-02-28 22:12:00,,0812.2,5.01,0.00,22.0,21.2,00.0,30.7,23.8,08.9,0000.0,0001.42,0000.43,0000.24
2023-02-28 22:13:00,,0812.1,4.99,0.00,22.0,21.0,00.0,30.7,23.8,09.5,0000.0,0003.91,0000.45,0000.24
2023-02-28 22:14:00,,0812.1,5.00,0.00,22.0,20.9,00.0,30.7,23.8,09.8,0000.0,0004.25,0000.46,0000.25
2023-02-28 22:15:00,,0812.0,5.00,0.00,22.0,20.8,00.0,30.7,23.8,10.5,0000.0,0004.25,0000.48,0000.25
2023-02-28 22:16:00,,0811.9,5.00,0.00,22.0,20.6,00.0,30.7,23.8,10.8,0000.0,0004.35,0000.48,0000.24
2023-02-28 22:17:00,,0811.9,5.00,0.00,22.0,20.5,00.0,30.7,23.7,10.6,0000.0,0004.31,0000.46,0000.24
2023-02-28 22:18:00,,0811.8,5.00,0.00,22.0,20.4,00.0,30.7,23.6,10.8,0000.0,0004.28,0000.46,0000.24
2023-02-28 22:19:00,,0811.8,5.00,0.00,21.9,20.4,00.0,30.7,23.6,10.9,0000.0,0004.25,0000.46,0000.24
2023-02-28 22:20:00,,0811.9,5.01,0.00,21.9,20.3,00.0,30.7,23.5,10.9,0000.0,0004.80,0000.61,0000.25
2023-02-28 22:21:00,,0812.1,4.99,0.00,21.9,20.2,00.0,30.7,23.5,11.2,0000.0,0004.96,0000.66,0000.26
2023-02-28 22:22:00,,0812.1,4.99,0.00,21.8,20.1,00.0,30.7,23.4,11.2,0000.0,0004.91,0000.64,0000.26
2023-02-28 22:23:00,,0812.1,5.00,0.00,21.8,20.1,00.0,30.7,23.4,11.2,0000.0,0004.93,0000.65,0000.26
2023-02-28 22:24:00,,0812.1,5.00,0.00,21.8,20.0,00.0,30.6,23.3,11.1,0000.0,0002.53,0000.65,0000.26
2023-02-28 22:25:00,,0812.1,5.01,0.00,21.7,20.0,00.0,30.6,23.3,11.0,0000.0,0001.58,0000.63,0000.26
2023-02-28 22:26:00,,0812.1,5.00,0.00,21.7,20.0,00.0,30.6,23.2,10.9,0000.0,0001.59,0000.63,0000.26
2023-02-28 22:27:00,,0812.1,5.00,0.00,21.7,19.9,00.0,30.6,23.2,11.0,0000.0,0001.50,0000.63,0000.26
2023-02-28 22:28:00,,0812.1,5.00,0.00,21.6,19.9,00.0,30.6,23.2,11.1,0000.0,0001.55,0000.64,0000.26
2023-02-28 22:29:00,,0812.2,5.00,0.00,21.6,19.9,00.0,30.6,23.2,11.1,0000.0,0001.71,0000.69,0000.26
2023-02-28 22:30:00,,0812.3,5.00,0.00,21.6,19.8,00.0,30.5,23.1,10.9,0000.0,0001.85,0000.72,0000.26
2023-02-28 22:31:00,,0812.2,5.00,0.00,21.6,19.8,00.0,30.5,23.1,10.9,0000.0,0001.35,0000.58,0000.25
2023-02-28 22:32:00,,0812.3,5.00,0.00,21.5,19.8,00.0,30.5,23.1,10.7,0000.0,0001.20,0000.54,0000.25
2023-02-28 22:33:00,,0812.3,5.00,0.00,21.5,19.8,00.0,30.5,23.1,10.5,0000.0,0001.22,0000.55,0000.25
2023-02-28 22:34:00,,0812.4,5.02,0.00,21.6,20.5,00.0,30.4,23.3,10.4,0000.0,0001.25,0000.56,0000.24
2023-02-28 22:35:00,,0812.4,5.01,0.00,21.7,21.8,00.0,30.4,23.7,10.3,0000.0,0001.19,0000.54,0000.24
2023-02-28 22:36:00,,0812.4,5.02,0.00,21.8,22.8,00.0,30.4,24.0,10.3,0000.0,0001.12,0000.52,0000.23
2023-02-28 22:37:00,,0812.4,4.97,0.00,22.0,23.0,00.0,30.5,24.1,10.3,0000.0,0001.03,0000.49,0000.23
2023-02-28 22:38:00,,0812.4,4.98,0.00,22.0,22.4,00.0,30.6,24.0,10.2,0000.0,0001.14,0000.52,0000.23
2023-02-28 22:39:00,,0812.4,5.02,0.00,22.0,21.8,00.0,30.6,23.9,10.0,0000.0,0001.18,0000.54,0000.24
2023-02-28 22:40:00,,0812.5,4.99,0.00,22.0,21.3,00.0,30.6,23.8,10.0,0000.0,0001.15,0000.52,0000.24
2023-02-28 22:41:00,,0812.5,4.99,0.00,22.0,21.0,00.0,30.6,23.7,10.0,0000.0,0001.08,0000.52,0000.24
2023-02-28 22:42:00,,0812.6,5.00,0.00,22.0,20.8,00.0,30.7,23.7,10.1,0000.0,0001.12,0000.53,0000.24
2023-02-28 22:43:00,,0812.6,5.00,0.00,21.9,20.6,00.0,30.7,23.7,10.1,0000.0,0001.12,0000.52,0000.24
2023-02-28 22:44:00,,0812.6,4.99,0.00,21.9,20.5,00.0,30.7,23.6,10.3,0000.0,0001.19,0000.55,0000.24
2023-02-28 22:45:00,,0812.6,5.03,0.00,21.9,20.3,00.0,30.7,23.5,10.3,0000.0,0001.31,0000.59,0000.25
2023-02-28 22:46:00,,0812.6,4.99,0.00,21.9,20.2,00.0,30.7,23.5,10.3,0000.0,0001.37,0000.61,0000.24
2023-02-28 22:47:00,,0812.6,4.96,0.00,21.8,20.1,00.0,30.6,23.4,10.3,0000.0,0004.28,0000.71,0000.25
2023-02-28 22:48:00,,0812.7,4.97,0.00,21.8,20.1,00.0,30.6,23.4,10.2,0000.0,0006.75,0000.89,0000.26
2023-02-28 22:49:00,,0812.7,5.00,0.00,21.8,20.0,00.0,30.6,23.3,10.2,0000.0,0007.22,0000.94,0000.26
2023-02-28 22:50:00,,0812.8,4.99,0.00,21.7,19.9,00.0,30.6,23.3,10.2,0000.0,0007.16,0000.93,0000.26
2023-02-28 22:51:00,,0812.8,5.00,0.00,21.7,19.9,00.0,30.6,23.3,10.1,0000.0,0007.07,0000.91,0000.25
2023-02-28 22:52:00,,0812.8,4.99,0.00,21.7,19.9,00.0,30.6,23.3,10.3,0000.0,0007.01,0000.90,0000.25
2023-02-28 22:53:00,,0812.8,5.01,0.00,21.7,19.8,00.0,30.5,23.3,10.5,0000.0,0006.99,0000.88,0000.24
2023-02-28 22:54:00,,0812.8,5.00,0.00,21.6,19.8,00.0,30.5,23.3,10.5,0000.0,0006.97,0000.88,0000.24
2023-02-28 22:55:00,,0812.8,5.02,0.00,21.6,19.8,00.0,30.5,23.3,10.4,0000.0,0007.00,0000.88,0000.24
2023-02-28 22:56:00,,0812.7,5.02,0.00,21.6,19.8,00.0,30.5,23.3,10.5,0000.0,0006.98,0000.84,0000.23
2023-02-28 22:57:00,,0812.8,5.00,0.00,21.6,19.8,00.0,30.5,23.2,10.5,0000.0,0007.40,0000.82,0000.23
2023-02-28 22:58:00,,0812.8,5.01,0.00,21.6,19.8,00.0,30.4,23.2,10.2,0000.0,0005.14,0000.77,0000.23
2023-02-28 22:59:00,,0812.8,4.99,0.00,21.6,19.9,00.0,30.4,23.2,10.3,0000.0,0002.33,0000.61,0000.23
